Regional Weather Roundup
Issued by NWS

Home | Current Version | Previous Version | Text Only | Print | Product List | Glossary Off
Versions: 1 2 3 4 5 6 7 8 9 10 11 12 13 14 15 16 17 18 19 20 21 22 23 24 25 26 27

000
ASUS45 KBOU 162107
RWRCO

WEATHER ROUNDUP FOR COLORADO
NATIONAL WEATHER SERVICE DENVER/BOULDER CO
300 PM MDT WED AUG 16 2017

NOTE: "FAIR" INDICATES FEW OR NO CLOUDS BELOW 12000 FEET WITH NO
SIGNIFICANT WEATHER AND/OR OBSTRUCTIONS TO VISIBILITY.

COZ001>005-013-030-031-162200-
...NORTHWEST COLORADO...

CITY           SKY/WX    TMP DP  RH WIND       PRES   REMARKS
CRAIG          FAIR      78  31  17 W12G21    30.18F
HAYDEN         FAIR      77  37  23 W14G20    30.21F
MEEKER         FAIR      76  32  20 W12G21    30.18F
RABBIT EARS PA FAIR      55  37  50 W10G23    30.44S
STEAMBOAT SPGS PTSUNNY   71  33  24 W10G16    30.20F
WALDEN         PTSUNNY   61  32  33 N9G21     30.29S
$$

COZ006>008-011-162200-
...WEST CENTRAL VALLEYS...

CITY           SKY/WX    TMP DP  RH WIND       PRES   REMARKS
GRAND JUNCTION FAIR      86  31  13 W9        30.06F
MONTROSE       FAIR      80  34  19 NE7       30.14F
EAGLE          PTSUNNY   76  33  21 W10       30.17F
RIFLE          FAIR      84  36  18 N13       30.10F
DELTA          FAIR      87  33  14 W7G20     30.09F
NUCLA          FAIR      82  25  12 N8        30.17F
$$

COZ017>023-064>068-162200-
...SOUTHWEST COLORADO...

CITY           SKY/WX    TMP DP  RH WIND       PRES   REMARKS
DURANGO        FAIR      79  24  13 S12G18    30.19F
CORTEZ         FAIR      82  26  13 W9G26     30.15F
PAGOSA SPRINGS FAIR      74  23  15 S12G18    30.26F
TELLURIDE      FAIR      68  25  19 NW9       30.37F
WOLF CREEK PAS PTSUNNY   54  32  43 SW8G20    30.58F
$$

COZ009-010-012-014-032>034-037-058>063-162200-
...CENTRAL COLORADO...

CITY           SKY/WX    TMP DP  RH WIND       PRES   REMARKS
ASPEN          FAIR      70  34  26 CALM      30.24F
BUENA VISTA    CLOUDY    72  26  18 SW8G16    30.23F
COPPER MTN     FAIR      54  30  40 NW8G17    30.52S
BERTHOUD PASS  PTSUNNY   43  37  81 NW20G30   30.54S
COTTONWOOD PAS PTSUNNY   68  21  17 NW5       30.37S
GUNNISON       FAIR      71  35  26 SW10      30.25F
KREMMLING      PTSUNNY   81  32  17 W13G18    30.22S
LEADVILLE      PTSUNNY   58  26  29 NW10G24   30.36F
MONARCH PASS   FAIR      52  28  40 W23       30.63R
SALIDA         PTSUNNY   74  33  22 S6        30.27F
SUNLIGHT       FAIR      57  36  44 W6        30.49S
WILKERSON PASS CLOUDY    54  28  37 N5        30.50S
$$

COZ069>075-162200-
...SAN LUIS VALLEY/SANGRE DE CRISTO MOUNTAINS...

CITY           SKY/WX    TMP DP  RH WIND       PRES   REMARKS
ALAMOSA        FAIR      76  32  20 SW12      30.23F
DEL NORTE      CLOUDY    71  32  23 CALM      30.25F
LA VETA PASS   NOT AVBL
SAGUACHE       FAIR      73  32  21 NW17      30.24F
$$

COZ035-036-038>040-162200-
...NORTHERN COLORADO FRONT RANGE...

CITY           SKY/WX    TMP DP  RH WIND       PRES   REMARKS
DENVER INTL AP PTSUNNY   73  45  36 N9        30.13S
DMNS CITY PARK   N/A     74  42  32 N14       30.13S
AURORA         PTSUNNY   72  44  37 NE9       30.14F
FRONT RANGE AP PTSUNNY   73  46  38 N10G16    30.14F
ERIE MUNI ARPT RAIN      69  49  48 N6        30.18R
BOULDER MUN AP PTSUNNY   68  50  52 CALM      30.14F
CENTENNIAL     FAIR      74  44  34 NE16      30.15S
BROOMFIELD     PTSUNNY   72  45  37 CALM      30.17S
FORT COLLINS   PTSUNNY   75  50  41 S12       30.11S
LONGMONT       LGT RAIN  69  54  59 N5        30.15S
$$

COZ041-046-047-076>085-087-088-162200-
...PIKES PEAK/PALMER DIVIDE AND SOUTHERN FOOTHILLS...

CITY           SKY/WX    TMP DP  RH WIND       PRES   REMARKS
COLO. SPRINGS  PTSUNNY   71  47  42 S8        30.18S
A. F. ACADEMY  PTSUNNY   71  47  43 SE8       30.17F
SCHRIEVER AFB  FAIR      70  45  41 E7        30.17F
CHEYENNE MTN   HVY RAIN  60  49  65 SW12      30.16F
ELLICOTT       FAIR     N/A N/A N/A E6        30.16F
FALCON         PTSUNNY   68  46  45 S8        30.22F THUNDER
FORT CARSON    LGT RAIN  67  55  66 CALM      30.15S
LIMON          FAIR      73  44  35 NW12G22   30.12F
MONUMENT HILL  CLOUDY    66  45  45 NE6       30.23F
CANON CITY     SUNNY     82  52  34 E12G18    30.09S
WALSENBURG     FAIR      77  46  33 E10       30.14S
TRINIDAD       FAIR      78  46  32 E7        30.13F
$$

COZ042>045-048>051-090-091-162200-
...NORTHEAST COLORADO...

CITY           SKY/WX    TMP DP  RH WIND       PRES   REMARKS
GREELEY ARPT   FAIR      77  46  33 VRB5      30.10S
AKRON          FAIR      74  49  41 N17G23    30.08F
BURLINGTON     FAIR      79  50  36 NW17G25   30.05S
WRAY           NOT AVBL
YUMA           FAIR      72  41  33 NW12G21   30.04F
STERLING       FAIR      75  50  41 N8G16     30.04S
HOLYOKE        FAIR      79  55  44 N14G21    30.03F
FORT MORGAN    FAIR      79  39  23 N12G22    30.08F
$$

COZ086-089-092>099-162200-
...SOUTHEAST COLORADO...

CITY           SKY/WX    TMP DP  RH WIND       PRES   REMARKS
PUEBLO         FAIR      82  46  28 SE13G18   30.06F
LA JUNTA       FAIR      84  50  30 MISG      30.05F
LAMAR          FAIR      84  52  33 N12G17    30.00F
SPRINGFIELD      N/A     80  52  37 NW6       30.05F
$$




USA.gov is the U.S. government's official web portal to all federal, state and local government web resources and services.